Cloud_Cover
5 5 5 65 95 100 100 100 100 82 6 97 24 8 70 40 89 18 84 100 100 100 100 100 100 100 52 100 83 1 25 66 5 5 5 82 100 72
5 5 5 49 67 100 100 100 100 99 51 98 100 100 100 100 100 99 79 100 100 100 100 100 100 100 100 37 3 1 0 1 5 2 5 14 78 98
5 5 36 84 57 59 100 100 100 100 96 22 100 100 100 100 100 100 100 100 94 100 100 100 100 100 80 26 9 5 5 7 1 5 2 6 36 61
5 5 5 1 3 19 66 100 100 100 100 41 99 100 100 100 100 100 100 100 100 100 100 100 98 97 49 24 100 78 5 96 40 2 5 2 1 6
9 5 5 0 0 1 76 54 99 56 100 85 54 100 100 100 100 100 100 100 100 100 100 100 100 100 57 5 89 100 62 32 77 23 5 1 0 0
4 0 0 0 0 0 0 48 86 91 66 5 5 92 100 100 100 98 9 100 100 100 100 100 100 84 13 6 51 100 100 94 12 7 35 5 5 5
5 4 0 1 5 3 12 34 54 84 6 4 85 12 100 100 100 100 86 53 100 100 100 79 34 57 99 82 22 88 100 100 82 57 5 5 3 5
4 5 5 5 69 100 92 100 100 78 12 5 5 5 89 82 86 96 64 98 99 84 92 35 9 67 68 48 7 8 44 100 100 100 66 19 5 2
13 5 5 92 76 85 100 100 100 100 99 89 53 7 63 72 8 36 65 54 6 74 58 48 18 64 86 75 51 46 5 5 95 95 5 22 5 5
94 55 22 80 100 100 82 26 19 14 53 26 5 6 26 99 5 68 81 94 82 100 98 35 100 66 100 6 5 5 12 97 81 78 58 5 5 5
72 89 91 30 100 100 100 83 84 7 25 6 30 81 97 92 99 100 97 75 73 66 15 5 15 10 6 5 5 5 9 5 5 5 5 4 5 5
100 100 100 100 100 100 100 98 80 26 5 5 11 73 74 65 96 95 76 98 100 70 50 96 5 5 6 5 5 6 5 5 5 5 0 0 0 7
100 100 100 100 100 100 100 95 89 92 95 74 5 5 21 15 51 97 63 18 51 85 100 100 13 45 54 77 100 99 93 30 38 70 84 8 5 5
100 100 100 100 100 100 100 100 100 100 96 98 96 97 98 98 100 100 98 75 81 74 100 97 86 5 14 50 64 100 100 98 34 64 80 99 73 41
100 100 100 100 100 100 100 100 100 100 100 100 100 100 100 100 100 100 100 100 99 87 90 100 100 97 100 86 35 100 98 99 97 67 100 84 78 55
100 100 100 100 100 100 100 100 100 100 100 100 100 100 100 100 100 100 95 96 98 98 94 75 78 96 100 99 100 100 100 100 97 56 100 96 100 45
100 100 100 100 100 100 100 100 100 100 100 100 100 100 100 100 100 100 100 98 100 70 81 92 100 100 100 100 100 100 100 68 55 26 94 22 99 68
100 100 100 100 100 100 95 100 100 100 100 100 85 91 96 98 97 96 91 94 84 76 61 22 91 100 100 91 96 87 96 99 100 85 96 99 62 61
100 100 100 100 100 100 100 100 100 100 100 100 100 92 100 100 92 95 85 100 100 99 100 88 100 100 100 90 67 97 100 100 92 100 100 85 84 86
95 100 100 100 100 100 100 100 100 100 100 100 100 99 98 94 83 100 95 95 100 88 98 100 86 97 97 83 77 66 54 77 91 75 88 86 93 78
96 100 100 100 100 100 100 100 100 100 100 100 100 100 100 100 97 77 82 69 75 68 55 93 86 87 99 100 100 91 70 88 70 71 51 58 42 74
49 94 100 100 100 100 100 100 100 100 100 100 100 100 100 100 100 100 99 74 80 71 58 64 43 68 86 75 85 81 97 73 49 5 7 21 23 91
48 24 88 100 100 100 100 100 100 100 100 100 100 100 100 100 100 100 100 100 88 73 57 99 25 91 57 85 84 97 72 49 95 84 69 92 6 5